Showing default

ZHUHAI-1 03B, 44536

Orbit data source: Space-Track

ZHUHAI-1 03B, 44536 is a payload satellite owned by Zhuhai Orbita (CN) in SSO that was launched on Thu, 19 Sep 2019 UTC via a CHANG ZHENG 11 launch vehicle from the Jiuquan Satellite Launch Center, China (JSC). Payload-class satellites include a variety of spacecraft equipped with specific instruments for various scientific and technological missions. These include communications satellites like Starlink; space stations such as the ISS; scientific satellites like the Hubble; Earth observation satellites from companies like Planet Labs, Umbra, and HawkEye 360; GPS; miniature CubeSats for education and research; and military/defense satellites.

Loading next visibility...
Identifier
44536, 2019-060C
Orbit
SSO
Country
Flag of CNCN / PRC
Related business
Manufacturer
Harbin
Mission
Operational Commercial Imaging
Bus & Motor
OHS-1, Unknown motor
Mass
69 kg wet, ~69 kg dry
Launch date (UTC)
2019-09-19 (6 years ago)
Launch vehicle
CHANG ZHENG 11
Launch site
Jiuquan Satellite Launch Center, China (JSC)
Object type
Payload
Rocket body
Debris
Shape & HBR
Box, Unknown HBR
Radar Cross Section
0.280 m², Medium (>0.1 m² and < 1m²)

Expand to show TLE details & history
Last TLE update: 7 hours ago

TLE from 7 hours ago
0 ZHUHAI-1 03B
1 44536U 19060C   25349.96014127  .00022170  00000-0  52269-3 0  9990
2 44536  97.5337 134.7360 0010026 265.9579  94.0521 15.41873513347973
Epoch: 2025-12-15T23:02Z
TLE epoch observation values (Epoch: 2025-12-15T23:02:36.205Z)
Latitude
-0.0001°
Longitude
64.23395°
Altitude
444.186 km
Speed
7.645 km/s
True Right ascension
08h 58m 56s
True Declination
0° 00' 00"
Sunlit
Object was in full shadow at epoch
Visualization orbit readout
Latitude
Unknown
Longitude
Unknown
Altitude
Unknown
Speed
Unknown
Apparent Right ascension
Unknown
Apparent Declination
Unknown
Sunlit
N/A
Visualization observer readout
Local Sidereal Time
04:45:30
Azimuth
Unknown
Elevation
Unknown
Doppler factor
Unknown
Orbital elements
Apogee altitude
444.356 km
Perigee altitude
430.689 km
Semi-major axis
6,815.659 km
Eccentricity
0.001
Inclination
97.5337°
RAAN
134.736°
Arg. of periapsis
265.9579°
True anomaly
94.16669°
Mean anomaly
94.0521°
Eccentric anomaly
94.1094°
Mean motion
3.85728 °/min
Orbital period
93.33 mins
BSTAR
0.00052269
Loading maneuver chart data...
Computing Atmospheric mass density...
Loading historical data...
Loading historical data...
Loading historical data...
Loading historical data...
Loading historical data...
Loading historical data...
Loading historical data...

Documentation

Showing up to 5 results
|